SCP
0 0 0 0 0 0 0 0 0 0 0 0 0 0 0 0 0 0 0 0 0 0 0 0 0 0 0 0 0 0 0 0
0 0 0 0 0 0 0 0 0 0 0 0 0 0 0 0 0 0 0 0 0 0 0 0 0 0 0 0 0 0 0 0
0 0 0 0 0 0 0 0 0 0 0 0 0 0 0 0 0 0 0 0 0 0 0 0 0 0 0 0 0 0 0 0
0 0 0 0 0 0 0 0 0 0 0 0 0 0 0 0 0 0 0 0 0 0 0 0 0 0 0 0 0 0 0 0
0 0 0 0 0 0 0 0 0 0 0 0 0 0 0 0 0 0 0 0 0 0 0 0 0 0 0 0 0 0 0 0
0 0 0 0 0 0 0 0 0 0 0 0 0 0 0 0 0 0 0 0 0 0 0 0 0 0 0 0 0 0 0 0
0 0 0 0 0 0 0 0 0 0 0 0 0 0 0 0 0 0 0 0 0 0 0 0 0 0 0 0 0 0 0 0
0 0 0 0 0 0 0 0 0 0 0 0 0 0 0 0 0 0 0 0 0 0 0 0 0 0 0 0 0 0 0 0
0 0 0 0 0 0 0 0 0 0 0 0 0 0 0 0 0 0 0 0 0 0 0 0 0 0 0 0 0 0 0 0
0 0 0 0 0 0 0 0 0 0 0 0 0 0 0 0 0 0 0 0 0 0 0 0 0 0 0 0 0 0 0 0
0 0 0 0 0 0 0 0 0 0 0 0 0 0 0 0 0 0 0 0 0 0 0 0 0 0 0 0 0 0 0 0
0 0 0 0 0 0 0 0 0 0 0 0 0 0 0 0 0 0 0 0 0 0 0 0 0 0 0 0 0 0 0 0
0 0 0 0 0 0 0 0 0 0 0 0 0 0 0 0 0 0 0 0 0 0 0 0 0 0 0 0 0 0 0 0
0 0 0 0 0 0 0 0 0 0 0 0 0 0 0 0 0 0 0 0 0 0 0 0 0 0 0 0 0 0 0 0
0 0 0 0 0 0 0 0 0 0 0 0 0 0 0 0 0 0 0 0 0 0 0 0 0 0 0 0 0 0 0 0
0 0 0 0 0 0 0 0 0 0 0 0 0 0 0 0 0 0 0 0 0 0 0 0 0 0 0 0 0 0 0 0
0 0 0 0 0 0 0 0 0 0 0 0 0 0 0 0 0 0 0 0 0 0 0 0 0 0 0 0 0 0 0 0
0 0 0 0 0 0 0 0 0 0 0 0 0 0 0 0 0 0 0 0 0 0 0 0 0 0 0 0 0 0 0 0
0 0 0 0 0 0 0 0 0 0 0 0 0 0 0 0 0 0 0 0 0 0 0 0 0 0 0 0 0 0 0 0
0 0 0 0 0 0 0 0 0 0 0 0 0 0 0 0 0 0 0 0 0 0 0 0 0 0 0 0 0 0 0 0
Wind_Speed_500mb
51 64 73 76 77 77 82 85 83 82 82 82 83 82 80 79 80 77 70 63 57 52 52 50 45 42 38 33 28 25 20 19
46 50 50 52 67 77 79 82 82 79 78 77 77 79 78 78 77 75 76 70 64 54 49 47 46 44 38 33 29 26 21 20
27 40 49 52 55 67 79 84 83 79 77 76 77 78 76 76 73 75 77 78 61 52 50 49 49 45 39 34 30 25 22 21
39 39 41 51 55 61 71 77 76 75 72 76 78 79 78 74 73 76 74 71 58 54 54 54 52 47 42 36 31 26 25 22
49 44 35 42 53 56 64 68 69 70 73 73 72 72 73 68 75 89 85 69 59 60 58 58 53 48 42 36 32 30 26 23
52 49 40 38 45 55 57 62 63 64 64 64 63 63 64 68 78 74 84 70 57 65 66 60 54 49 42 38 35 31 27 23
52 44 45 45 42 51 58 59 61 61 60 58 57 57 59 68 75 83 77 63 66 67 62 59 54 48 43 40 36 31 28 24
47 40 38 44 44 49 54 54 55 55 54 52 52 57 60 67 75 79 79 67 69 67 63 58 53 48 45 42 37 32 29 27
58 52 48 42 40 44 51 53 55 52 53 54 56 60 64 74 83 79 69 68 71 69 64 59 53 49 47 43 38 33 31 28
50 44 37 34 34 38 48 55 55 56 56 59 60 68 69 75 80 75 73 72 72 67 63 59 56 52 50 43 38 34 32 29
24 30 31 30 32 34 45 58 58 58 57 59 64 69 72 75 77 76 73 76 74 69 64 60 56 53 48 43 39 37 32 32
21 21 24 26 31 35 40 50 55 55 57 60 64 69 73 77 79 80 80 79 75 71 67 63 59 55 49 43 39 34 31 35
23 20 20 21 24 27 32 35 43 53 58 62 64 68 75 79 81 82 83 80 77 75 72 67 61 56 50 43 38 31 35 38
23 21 14 12 15 17 16 21 29 41 51 62 67 72 75 80 84 86 86 86 83 79 76 71 64 57 49 41 31 35 35 47
19 18 16 14 11 11 14 19 24 30 35 46 62 73 77 82 86 88 91 91 87 83 78 69 61 55 47 37 36 31 49 54
18 19 18 16 18 17 17 19 22 26 30 36 47 62 75 86 91 94 93 90 87 83 75 70 65 54 37 33 32 52 61 53
17 15 15 15 15 16 18 20 21 23 27 33 40 49 63 77 88 92 91 87 84 74 66 61 56 46 32 38 62 64 60 60
17 18 17 16 17 17 16 17 19 21 24 28 34 41 50 62 77 90 92 91 79 71 66 65 60 52 55 72 64 63 64 68
16 16 17 18 18 18 18 18 17 17 18 24 30 36 42 51 62 74 88 84 79 73 69 71 66 63 82 77 65 69 73 74
12 14 16 18 19 20 21 20 18 20 22 24 28 31 36 43 52 62 71 78 75 71 74 76 76 80 88 84 79 75 79 77
Wind_Direction_500mb
251 243 241 246 245 243 237 235 234 234 237 238 239 237 237 236 235 234 233 233 232 245 256 246 230 221 220 226 232 242 252 265
268 262 255 250 248 240 235 231 230 232 234 236 238 240 239 237 235 234 230 230 227 237 252 228 221 218 221 226 232 241 251 260
300 273 258 245 238 238 233 230 230 232 232 235 238 241 239 239 234 233 227 228 227 232 238 221 216 219 221 225 232 241 250 256
328 312 272 251 237 231 229 229 230 232 234 236 238 240 240 235 231 234 222 215 222 236 225 214 214 219 222 224 230 237 245 250
327 315 292 263 246 228 227 227 229 231 234 238 241 239 238 232 225 226 219 215 223 227 217 211 215 217 220 226 229 233 237 241
307 310 293 272 247 236 224 229 233 238 242 244 241 235 228 222 223 214 222 212 228 219 209 211 214 217 221 225 228 231 233 236
296 293 285 275 256 243 234 231 236 239 241 239 232 228 222 216 212 225 208 213 219 212 210 213 216 217 222 224 228 230 232 234
288 277 294 283 262 248 243 241 238 239 236 231 225 221 218 219 211 217 210 214 211 210 211 214 216 219 223 226 227 229 231 233
293 296 289 287 275 252 248 247 245 239 235 228 221 221 218 219 213 210 212 215 210 213 213 216 218 221 224 227 226 229 232 234
288 292 294 287 275 260 249 245 245 243 237 231 223 219 219 220 213 214 217 215 212 216 217 218 221 221 223 224 227 232 234 239
299 286 287 288 281 265 249 245 246 244 242 236 229 223 223 222 221 220 218 216 215 217 218 220 223 223 223 222 226 231 237 244
327 313 296 283 278 272 263 255 253 249 246 240 235 230 225 225 223 222 217 216 218 219 220 221 223 222 223 222 227 232 242 250
340 326 302 289 280 277 277 277 264 255 249 245 240 235 228 224 222 219 219 219 220 220 221 222 223 222 220 222 223 236 249 256
338 332 324 301 286 283 281 265 265 260 253 249 245 239 232 227 224 221 220 221 223 223 224 224 222 220 218 220 228 240 249 255
345 333 328 316 293 276 274 271 268 266 259 252 246 242 236 232 229 228 227 226 226 227 227 225 222 216 214 226 229 243 250 253
354 338 330 321 304 290 271 265 267 266 263 258 252 247 242 238 234 233 234 236 237 236 233 229 222 214 222 236 258 269 256 255
5 356 339 326 307 290 277 263 258 263 266 264 260 255 248 243 240 238 239 240 240 238 238 232 218 218 240 260 266 255 252 252
23 16 6 349 332 321 311 298 287 277 267 264 264 262 258 252 246 241 240 237 235 234 230 223 222 233 250 258 258 259 255 253
35 23 18 13 2 353 341 328 314 296 282 276 272 267 262 258 255 249 245 241 240 238 235 226 231 249 257 264 259 256 255 253
26 9 6 3 2 1 353 343 329 313 299 286 276 271 272 271 264 254 249 240 240 239 238 232 242 254 259 266 265 256 256 255
Wind_Speed_850mb
51 64 73 76 77 77 82 85 83 82 82 82 83 82 80 79 80 77 70 63 57 52 52 50 45 42 38 33 28 25 20 19
46 50 50 52 67 77 79 82 82 79 78 77 77 79 78 78 77 75 76 70 64 54 49 47 46 44 38 33 29 26 21 20
27 40 49 52 55 67 79 84 83 79 77 76 77 78 76 76 73 75 77 78 61 52 50 49 49 45 39 34 30 25 22 21
39 39 41 51 55 61 71 77 76 75 72 76 78 79 78 74 73 76 74 71 58 54 54 54 52 47 42 36 31 26 25 22
49 44 35 42 53 56 64 68 69 70 73 73 72 72 73 68 75 89 85 69 59 60 58 58 53 48 42 36 32 30 26 23
52 49 40 38 45 55 57 62 63 64 64 64 63 63 64 68 78 74 84 70 57 65 66 60 54 49 42 38 35 31 27 23
52 44 45 45 42 51 58 59 61 61 60 58 57 57 59 68 75 83 77 63 66 67 62 59 54 48 43 40 36 31 28 24
47 40 38 44 44 49 54 54 55 55 54 52 52 57 60 67 75 79 79 67 69 67 63 58 53 48 45 42 37 32 29 27
58 52 48 42 40 44 51 53 55 52 53 54 56 60 64 74 83 79 69 68 71 69 64 59 53 49 47 43 38 33 31 28
50 44 37 34 34 38 48 55 55 56 56 59 60 68 69 75 80 75 73 72 72 67 63 59 56 52 50 43 38 34 32 29
24 30 31 30 32 34 45 58 58 58 57 59 64 69 72 75 77 76 73 76 74 69 64 60 56 53 48 43 39 37 32 32
21 21 24 26 31 35 40 50 55 55 57 60 64 69 73 77 79 80 80 79 75 71 67 63 59 55 49 43 39 34 31 35
23 20 20 21 24 27 32 35 43 53 58 62 64 68 75 79 81 82 83 80 77 75 72 67 61 56 50 43 38 31 35 38
23 21 14 12 15 17 16 21 29 41 51 62 67 72 75 80 84 86 86 86 83 79 76 71 64 57 49 41 31 35 35 47
19 18 16 14 11 11 14 19 24 30 35 46 62 73 77 82 86 88 91 91 87 83 78 69 61 55 47 37 36 31 49 54
18 19 18 16 18 17 17 19 22 26 30 36 47 62 75 86 91 94 93 90 87 83 75 70 65 54 37 33 32 52 61 53
17 15 15 15 15 16 18 20 21 23 27 33 40 49 63 77 88 92 91 87 84 74 66 61 56 46 32 38 62 64 60 60
17 18 17 16 17 17 16 17 19 21 24 28 34 41 50 62 77 90 92 91 79 71 66 65 60 52 55 72 64 63 64 68
16 16 17 18 18 18 18 18 17 17 18 24 30 36 42 51 62 74 88 84 79 73 69 71 66 63 82 77 65 69 73 74
12 14 16 18 19 20 21 20 18 20 22 24 28 31 36 43 52 62 71 78 75 71 74 76 76 80 88 84 79 75 79 77
Wind_Direction_850mb
251 243 241 246 245 243 237 235 234 234 237 238 239 237 237 236 235 234 233 233 232 245 256 246 230 221 220 226 232 242 252 265
268 262 255 250 248 240 235 231 230 232 234 236 238 240 239 237 235 234 230 230 227 237 252 228 221 218 221 226 232 241 251 260
300 273 258 245 238 238 233 230 230 232 232 235 238 241 239 239 234 233 227 228 227 232 238 221 216 219 221 225 232 241 250 256
328 312 272 251 237 231 229 229 230 232 234 236 238 240 240 235 231 234 222 215 222 236 225 214 214 219 222 224 230 237 245 250
327 315 292 263 246 228 227 227 229 231 234 238 241 239 238 232 225 226 219 215 223 227 217 211 215 217 220 226 229 233 237 241
307 310 293 272 247 236 224 229 233 238 242 244 241 235 228 222 223 214 222 212 228 219 209 211 214 217 221 225 228 231 233 236
296 293 285 275 256 243 234 231 236 239 241 239 232 228 222 216 212 225 208 213 219 212 210 213 216 217 222 224 228 230 232 234
288 277 294 283 262 248 243 241 238 239 236 231 225 221 218 219 211 217 210 214 211 210 211 214 216 219 223 226 227 229 231 233
293 296 289 287 275 252 248 247 245 239 235 228 221 221 218 219 213 210 212 215 210 213 213 216 218 221 224 227 226 229 232 234
288 292 294 287 275 260 249 245 245 243 237 231 223 219 219 220 213 214 217 215 212 216 217 218 221 221 223 224 227 232 234 239
299 286 287 288 281 265 249 245 246 244 242 236 229 223 223 222 221 220 218 216 215 217 218 220 223 223 223 222 226 231 237 244
327 313 296 283 278 272 263 255 253 249 246 240 235 230 225 225 223 222 217 216 218 219 220 221 223 222 223 222 227 232 242 250
340 326 302 289 280 277 277 277 264 255 249 245 240 235 228 224 222 219 219 219 220 220 221 222 223 222 220 222 223 236 249 256
338 332 324 301 286 283 281 265 265 260 253 249 245 239 232 227 224 221 220 221 223 223 224 224 222 220 218 220 228 240 249 255
345 333 328 316 293 276 274 271 268 266 259 252 246 242 236 232 229 228 227 226 226 227 227 225 222 216 214 226 229 243 250 253
354 338 330 321 304 290 271 265 267 266 263 258 252 247 242 238 234 233 234 236 237 236 233 229 222 214 222 236 258 269 256 255
5 356 339 326 307 290 277 263 258 263 266 264 260 255 248 243 240 238 239 240 240 238 238 232 218 218 240 260 266 255 252 252
23 16 6 349 332 321 311 298 287 277 267 264 264 262 258 252 246 241 240 237 235 234 230 223 222 233 250 258 258 259 255 253
35 23 18 13 2 353 341 328 314 296 282 276 272 267 262 258 255 249 245 241 240 238 235 226 231 249 257 264 259 256 255 253
26 9 6 3 2 1 353 343 329 313 299 286 276 271 272 271 264 254 249 240 240 239 238 232 242 254 259 266 265 256 256 255